This demonstration page uses our WeatherBlox Daily Observations layout. Learn more.

Hourly Observations for January 19, 2020

Temp ( °F °C ) Dew Point ( °F °C ) Humidity (%) Winds ( mph kmh ) Pressure ( in mb ) Visibility ( mi km ) Precip ( " mm )
12:15 am 00:15 Cloudy 36 2 36 2 100 100 SW 5 7 29.78 1008 10 16.0934 0 0
12:35 am 00:35 Cloudy 36 2 36 2 100 100 SW 6 9 29.77 1008 10 16.0934 0 0
12:55 am 00:55 Cloudy 36 2 36 2 100 100 SW 7 11 29.76 1008 10 16.0934 0 0
1:15 am 01:15 Cloudy 36 2 36 2 100 100 SW 6 9 29.75 1007 10 16.0934 0 0
1:35 am 01:35 Cloudy 37 3 37 3 100 100 N 12 19 29.78 1008 10 16.0934 0 0
1:55 am 01:55 Cloudy 37 3 37 3 100 100 Calm 29.77 1008 10 16.0934 0 0
2:15 am 02:15 Cloudy 37 3 37 3 100 100 NW 5 7 29.77 1008 10 16.0934 0 0
2:35 am 02:35 Cloudy 36 2 36 2 100 100 Calm 29.77 1008 7 11.26538 0 0
2:55 am 02:55 Cloudy 37 3 37 3 100 100 SSW 6 9 29.76 1008 5 8.0467 0 0
3:15 am 03:15 Cloudy 36 2 36 2 100 100 SSW 5 7 29.76 1008 5 8.0467 0.01 0.254
3:35 am 03:35 Cloudy 37 3 37 3 100 100 Calm 29.76 1008 7 11.26538 0.02 0.508
3:55 am 03:55 Cloudy 36 2 36 2 100 100 W 3 6 29.76 1008 10 16.0934 0.02 0.508
4:15 am 04:15 Cloudy 36 2 36 2 100 100 NNE 3 6 29.76 1008 3 4.82802 0.03 0.762
4:35 am 04:35 Cloudy 36 2 36 2 100 100 Calm 29.77 1008 7 11.26538 0.04 1.016
4:55 am 04:55 Cloudy 36 2 36 2 100 100 Calm 29.78 1008 7 11.26538 0.04 1.016
5:15 am 05:15 Mostly Cloudy 36 2 36 2 100 100 NNW 6 9 29.79 1009 10 16.0934 0 0
5:35 am 05:35 Partly Cloudy 36 2 36 2 100 100 ESE 6 9 29.79 1009 10 16.0934 0.01 0.254
5:55 am 05:55 Cloudy 34 1 34 1 100 100 Calm 29.8 1009 0.5 0.80467 0.01 0.254
6:15 am 06:15 Partly Cloudy 34 1 34 1 100 100 N 6 9 29.8 1009 2.5 4.02335 0 0
6:35 am 06:35 Clear 32 0 32 0 100 100 NW 9 15 29.81 1010 10 16.0934 0 0
6:55 am 06:55 Partly Cloudy 36 2 32 0 87 87 NW 14 22 29.82 1010 10 16.0934 0 0
7:15 am 07:15 Mostly Cloudy 36 2 32 0 87 87 NW 15 24 29.84 1010 10 16.0934 0 0
7:35 am 07:35 Partly Cloudy 37 3 32 0 81 81 NW 17 28 29.84 1010 10 16.0934 0 0
7:55 am 07:55 Sunny 37 3 30 -1 75 75 NW 18 30 29.85 1011 10 16.0934 0 0
8:15 am 08:15 Mostly Cloudy 37 3 30 -1 75 75 NNW 9 15 29.87 1011 10 16.0934 0 0
8:35 am 08:35 Cloudy 37 3 30 -1 75 75 NW 15 24 29.88 1012 10 16.0934 0 0
8:55 am 08:55 Mostly Cloudy 37 3 28 -2 70 70 NNW 24 39 29.89 1012 10 16.0934 0 0
9:15 am 09:15 Mostly Cloudy 37 3 28 -2 70 70 NW 24 39 29.88 1012 10 16.0934 0 0
9:35 am 09:35 Partly Cloudy 37 3 28 -2 70 70 NNW 21 33 29.89 1012 10 16.0934 0 0
9:55 am 09:55 Partly Cloudy 37 3 27 -3 65 65 N 12 19 29.92 1013 10 16.0934 0 0
10:15 am 10:15 Cloudy 37 3 27 -3 65 65 NNW 9 15 29.94 1014 10 16.0934 0 0
10:35 am 10:35 Cloudy 37 3 27 -3 65 65 NW 13 20 29.95 1014 10 16.0934 0 0
10:55 am 10:55 Cloudy 37 3 27 -3 65 65 NNW 20 31 29.95 1014 10 16.0934 0 0
11:15 am 11:15 Mostly Cloudy 37 3 27 -3 65 65 NW 18 30 29.95 1014 10 16.0934 0 0
11:35 am 11:35 Cloudy 37 3 27 -3 65 65 NW 13 20 29.95 1014 10 16.0934 0 0
11:55 am 11:55 Mostly Cloudy 36 2 27 -3 70 70 NW 24 39 29.95 1014 10 16.0934 0 0
12:15 pm 12:15 Cloudy 37 3 25 -4 60 60 NW 22 35 29.96 1014 10 16.0934 0 0
12:35 pm 12:35 Cloudy 37 3 25 -4 60 60 NNW 28 44 29.96 1014 10 16.0934 0 0
12:55 pm 12:55 Cloudy 36 2 23 -5 60 60 NNW 18 30 29.97 1015 10 16.0934 0 0
1:15 pm 13:15 Cloudy 36 2 23 -5 60 60 NNW 26 43 29.97 1015 10 16.0934 0 0
1:35 pm 13:35 Cloudy 34 1 21 -6 60 60 NW 29 46 29.98 1015 10 16.0934 0 0
1:55 pm 13:55 Mostly Cloudy 36 2 21 -6 56 56 NW 20 31 29.99 1016 10 16.0934 0 0
2:15 pm 14:15 Cloudy 34 1 21 -6 60 60 NW 18 30 29.99 1016 10 16.0934 0 0
2:35 pm 14:35 Cloudy 36 2 21 -6 56 56 NW 16 26 29.99 1016 10 16.0934 0 0
2:55 pm 14:55 Cloudy 34 1 21 -6 60 60 NW 24 39 29.99 1016 10 16.0934 0 0
3:15 pm 15:15 Cloudy 34 1 21 -6 60 60 NW 20 31 30.01 1016 10 16.0934 0 0
3:35 pm 15:35 Cloudy 34 1 21 -6 60 60 NNW 14 22 30.03 1017 10 16.0934 0 0
3:55 pm 15:55 Cloudy 34 1 19 -7 56 56 NNW 20 31 30.05 1018 10 16.0934 0 0
4:15 pm 16:15 Cloudy 32 0 19 -7 60 60 NNW 12 19 30.05 1018 10 16.0934 0 0
4:35 pm 16:35 Cloudy 32 0 23 -5 69 69 NW 15 24 30.06 1018 10 16.0934 0 0
4:55 pm 16:55 Cloudy 32 0 21 -6 64 64 NW 13 20 30.07 1018 10 16.0934 0 0
5:15 pm 17:15 Cloudy 32 0 21 -6 64 64 WNW 9 15 30.08 1019 10 16.0934 0 0
5:35 pm 17:35 Partly Cloudy 32 0 19 -7 60 60 NW 15 24 30.08 1019 10 16.0934 0 0
5:55 pm 17:55 Partly Cloudy 32 0 19 -7 60 60 NW 18 30 30.09 1019 10 16.0934 0 0
6:15 pm 18:15 Cloudy 32 0 19 -7 60 60 NW 8 13 30.1 1019 10 16.0934 0 0
6:35 pm 18:35 Cloudy 32 0 19 -7 60 60 NW 8 13 30.12 1020 10 16.0934 0 0
6:55 pm 18:55 Cloudy 32 0 19 -7 60 60 NNW 9 15 30.13 1020 10 16.0934 0 0
7:15 pm 19:15 Cloudy 32 0 19 -7 60 60 NNW 14 22 30.14 1021 10 16.0934 0 0
7:35 pm 19:35 Cloudy 30 -1 19 -7 64 64 NW 21 33 30.15 1021 10 16.0934 0 0
7:55 pm 19:55 Cloudy 30 -1 18 -8 59 59 NW 18 30 30.16 1021 10 16.0934 0 0
8:15 pm 20:15 Cloudy 30 -1 18 -8 59 59 NW 16 26 30.16 1021 10 16.0934 0 0
8:35 pm 20:35 Cloudy 30 -1 18 -8 59 59 N 14 22 30.18 1022 10 16.0934 0 0
8:55 pm 20:55 Cloudy 30 -1 18 -8 59 59 NW 15 24 30.18 1022 10 16.0934 0 0
9:15 pm 21:15 Cloudy 28 -2 18 -8 64 64 NW 22 35 30.19 1022 10 16.0934 0 0
9:35 pm 21:35 Partly Cloudy 28 -2 16 -9 59 59 NNW 21 33 30.21 1023 10 16.0934 0 0
9:55 pm 21:55 Clear 27 -3 16 -9 64 64 NNW 10 17 30.21 1023 10 16.0934 0 0
10:15 pm 22:15 Clear 27 -3 14 -10 59 59 NNW 15 24 30.21 1023 10 16.0934 0 0
10:35 pm 22:35 Clear 27 -3 16 -9 64 64 NW 18 30 30.21 1023 10 16.0934 0 0
10:55 pm 22:55 Clear 27 -3 16 -9 64 64 NW 21 33 30.21 1023 10 16.0934 0 0
11:15 pm 23:15 Clear 27 -3 14 -10 59 59 NNW 17 28 30.22 1023 10 16.0934 0 0
11:35 pm 23:35 Clear 25 -4 14 -10 63 63 NW 16 26 30.23 1024 10 16.0934 0 0
11:55 pm 23:55 Clear 25 -4 14 -10 63 63 NNW 14 22 30.23 1024 10 16.0934 0 0

Powered by AerisWeather